Voltar ao catálogo

NAVSTAR 52

USA 168

AtivoNavegaçãoMEO
NORAD 27704·PAYLOAD·🇺🇸 United States

Lançado Mar 31, 2003 de Cape Canaveral Space Force Station

Loading…

Próximas Passagens (próximas 24 horas)

TLE

AtualizadoSource: Space-Track

Época: Sep 14, 2026, 15:00 UTC

1 27704U 03010A   26257.62500000 -.00000095  00000-0  00000+0 0  9993
2 27704  54.7517 321.8825 0006649 253.1986 155.4100  1.91455019171649

Acompanhe NAVSTAR 52 em tempo real com AllMySat

Download on the App Store